Torna al catalogo

STARLINK-33669

AttivoComunicazioniVLEO
NORAD 63283·PAYLOAD·🇺🇸 United States

Lanciato Mar 15, 2025 da Cape Canaveral Space Force Station

Loading…

Prossimi Passaggi (prossime 24 ore)

TLE

AggiornatoSource: CelesTrak SupGP

Epoca: Sep 14, 2026, 21:35 UTC

1 63283C 25053U   26257.89979167  .00034443  00000+0  12480-2 0  2576
2 63283  42.9992 252.8062 0001284 261.6886 160.2188 15.27549592    12

Traccia STARLINK-33669 in tempo reale con AllMySat

Download on the App Store